| time (UTC) | temp F | wind direction | speed MPH | gust MPH | rain 1hr in | rain 24hr in | rain mn in | humidity % | barometer mb |
| 20260904130703 | 76 | 132 | 4.0 | 9.0 | 0.00 | 0.00 | 0.00 | 82 | 1015.9 |
| 20260904130202 | 76 | 138 | 3.0 | 7.0 | 0.00 | 0.00 | 0.00 | 83 | 1015.8 |
| 20260904123703 | 75 | 133 | 3.0 | 7.0 | 0.00 | 0.00 | 0.00 | 84 | 1015.6 |
| 20260904120703 | 74 | 140 | 5.0 | 8.0 | 0.00 | 0.00 | 0.00 | 83 | 1015.3 |
| 20260904120204 | 74 | 136 | 3.0 | 7.0 | 0.00 | 0.00 | 0.00 | 84 | 1015.3 |
| 20260904113703 | 74 | 124 | 3.0 | 7.0 | 0.00 | 0.00 | 0.00 | 83 | 1015.3 |
| 20260904110203 | 75 | 126 | 2.0 | 8.0 | 0.00 | 0.00 | 0.00 | 82 | 1015.4 |
| 20260904103703 | 75 | 128 | 2.0 | 5.0 | 0.00 | 0.00 | 0.00 | 82 | 1015.2 |
| 20260904103203 | 75 | 136 | 3.0 | 6.0 | 0.00 | 0.00 | 0.00 | 81 | 1015.2 |
| 20260904100703 | 76 | 138 | 2.0 | 5.0 | 0.00 | 0.00 | 0.00 | 81 | 1015.2 |
| 20260904100203 | 76 | 135 | 2.0 | 5.0 | 0.00 | 0.00 | 0.00 | 81 | 1015.3 |
| 20260904093203 | 76 | 160 | 2.0 | 5.0 | 0.00 | 0.00 | 0.00 | 79 | 1015.2 |
| 20260904090703 | 77 | 153 | 2.0 | 3.0 | 0.00 | 0.00 | 0.00 | 79 | 1014.8 |
| 20260904090203 | 77 | 150 | 1.0 | 5.0 | 0.00 | 0.00 | 0.00 | 79 | 1014.9 |
| 20260904083203 | 77 | 155 | 3.0 | 6.0 | 0.00 | 0.00 | 0.00 | 78 | 1014.8 |
| 20260904080703 | 78 | 121 | 3.0 | 6.0 | 0.00 | 0.00 | 0.00 | 77 | 1014.6 |
| 20260904080203 | 78 | 145 | 2.0 | 6.0 | 0.00 | 0.00 | 0.00 | 77 | 1014.6 |
| 20260904073703 | 78 | 130 | 1.0 | 3.0 | 0.00 | 0.00 | 0.00 | 76 | 1014.7 |
| 20260904073203 | 78 | 130 | 2.0 | 3.0 | 0.00 | 0.00 | 0.00 | 75 | 1014.8 |
| 20260904070703 | 79 | 121 | 3.0 | 5.0 | 0.00 | 0.00 | 0.00 | 74 | 1014.7 |
| 20260904070203 | 79 | 146 | 3.0 | 6.0 | 0.00 | 0.00 | 0.00 | 74 | 1014.7 |
| 20260904063703 | 80 | 144 | 2.0 | 5.0 | 0.00 | 0.00 | 0.00 | 73 | 1014.9 |
| 20260904063202 | 80 | 159 | 1.0 | 6.0 | 0.00 | 0.00 | 0.00 | 73 | 1014.9 |
| 20260904060703 | 80 | 163 | 3.0 | 6.0 | 0.00 | 0.00 | 0.00 | 72 | 1014.9 |
| 20260904060203 | 81 | 148 | 3.0 | 7.0 | 0.00 | 0.00 | 0.00 | 71 | 1014.8 |
| 20260904053703 | 81 | 151 | 4.0 | 7.0 | 0.00 | 0.00 | 0.00 | 70 | 1014.7 |
| 20260904050704 | 82 | 158 | 4.0 | 6.0 | 0.00 | 0.00 | 0.00 | 69 | 1014.5 |
| 20260904050202 | 82 | 157 | 4.0 | 8.0 | 0.00 | 0.00 | 0.00 | 69 | 1014.6 |
| 20260904043703 | 83 | 166 | 2.0 | 6.0 | 0.00 | 0.00 | 0.00 | 68 | 1014.7 |
| 20260904043203 | 83 | 164 | 1.0 | 10.0 | 0.00 | 0.00 | 0.00 | 68 | 1014.7 |
| 20260904040203 | 84 | 147 | 4.0 | 9.0 | 0.00 | 0.00 | 0.00 | 66 | 1014.8 |
| 20260904033704 | 85 | 149 | 3.0 | 8.0 | 0.00 | 0.00 | 0.00 | 65 | 1014.8 |
| 20260904033203 | 85 | 157 | 4.0 | 12.0 | 0.00 | 0.00 | 0.00 | 64 | 1014.8 |
| 20260904030204 | 86 | 146 | 6.0 | 9.0 | 0.00 | 0.00 | 0.00 | 63 | 1014.5 |
| 20260904023203 | 86 | 154 | 4.0 | 12.0 | 0.00 | 0.00 | 0.00 | 62 | 1014.2 |
| 20260904020704 | 87 | 167 | 4.0 | 9.0 | 0.00 | 0.00 | 0.00 | 61 | 1013.9 |
| 20260904020204 | 87 | 154 | 5.0 | 12.0 | 0.00 | 0.00 | 0.00 | 60 | 1013.8 |
| 20260904013703 | 88 | 143 | 6.0 | 9.0 | 0.00 | 0.00 | 0.00 | 58 | 1013.4 |
| 20260904013203 | 89 | 153 | 5.0 | 13.0 | 0.00 | 0.00 | 0.00 | 58 | 1013.3 |
| 20260904010703 | 90 | 139 | 6.0 | 10.0 | 0.00 | 0.00 | 0.00 | 58 | 1012.9 |
| 20260904010203 | 90 | 156 | 5.0 | 14.0 | 0.00 | 0.00 | 0.00 | 57 | 1012.9 |
| 20260904003703 | 91 | 154 | 7.0 | 14.0 | 0.00 | 0.00 | 0.00 | 56 | 1012.7 |
| 20260904003203 | 91 | 159 | 6.0 | 12.0 | 0.00 | 0.00 | 0.00 | 56 | 1012.7 |
| 20260904000703 | 91 | 154 | 7.0 | 13.0 | 0.00 | 0.00 | 0.00 | 55 | 1012.6 |
| 20260904000204 | 91 | 145 | 6.0 | 15.0 | 0.00 | 0.00 | 0.00 | 55 | 1012.6 |
| 20260903233703 | 92 | 151 | 7.0 | 13.0 | 0.00 | 0.00 | 0.00 | 55 | 1012.5 |
| 20260903233204 | 93 | 167 | 7.0 | 16.0 | 0.00 | 0.00 | 0.00 | 54 | 1012.6 |
| 20260903230703 | 93 | 150 | 8.0 | 15.0 | 0.00 | 0.00 | 0.00 | 54 | 1012.4 |
| 20260903230203 | 93 | 135 | 7.0 | 16.0 | 0.00 | 0.00 | 0.00 | 54 | 1012.4 |
| 20260903223703 | 93 | 152 | 6.0 | 12.0 | 0.00 | 0.00 | 0.00 | 54 | 1012.3 |
| 20260903220203 | 94 | 134 | 7.0 | 18.0 | 0.00 | 0.00 | 0.00 | 53 | 1012.4 |
| 20260903213702 | 95 | 154 | 6.0 | 13.0 | 0.00 | 0.00 | 0.00 | 54 | 1012.6 |
| 20260903213203 | 94 | 152 | 6.0 | 16.0 | 0.00 | 0.00 | 0.00 | 54 | 1012.6 |
| 20260903210703 | 95 | 171 | 6.0 | 12.0 | 0.00 | 0.00 | 0.00 | 52 | 1012.8 |
| 20260903210203 | 95 | 160 | 7.0 | 14.0 | 0.00 | 0.00 | 0.00 | 52 | 1012.9 |
| 20260903203702 | 95 | 142 | 5.0 | 12.0 | 0.00 | 0.00 | 0.00 | 51 | 1013.1 |
| 20260903203202 | 95 | 156 | 7.0 | 14.0 | 0.00 | 0.00 | 0.00 | 50 | 1013.2 |
| 20260903200703 | 95 | 143 | 7.0 | 12.0 | 0.00 | 0.00 | 0.00 | 51 | 1013.4 |
| 20260903193703 | 94 | 158 | 7.0 | 16.0 | 0.00 | 0.00 | 0.00 | 53 | 1013.6 |
| 20260903193203 | 94 | 158 | 7.0 | 14.0 | 0.00 | 0.00 | 0.00 | 52 | 1013.7 |
| 20260903190703 | 94 | 169 | 3.0 | 10.0 | 0.00 | 0.00 | 0.00 | 56 | 1014.0 |
| 20260903190203 | 94 | 166 | 6.0 | 14.0 | 0.00 | 0.00 | 0.00 | 54 | 1014.0 |
| 20260903183703 | 93 | 142 | 7.0 | 12.0 | 0.00 | 0.00 | 0.00 | 56 | 1014.5 |
| 20260903180703 | 93 | 158 | 6.0 | 12.0 | 0.00 | 0.00 | 0.00 | 56 | 1014.7 |
| 20260903180203 | 93 | 182 | 5.0 | 14.0 | 0.00 | 0.00 | 0.00 | 56 | 1014.8 |
| 20260903173703 | 92 | 158 | 4.0 | 13.0 | 0.00 | 0.00 | 0.00 | 60 | 1015.2 |
| 20260903173203 | 91 | 172 | 6.0 | 14.0 | 0.00 | 0.00 | 0.00 | 60 | 1015.2 |
| 20260903170704 | 90 | 170 | 5.0 | 9.0 | 0.00 | 0.00 | 0.00 | 62 | 1015.4 |
| 20260903170203 | 90 | 145 | 6.0 | 15.0 | 0.00 | 0.00 | 0.00 | 62 | 1015.6 |
| 20260903163703 | 88 | 148 | 6.0 | 12.0 | 0.00 | 0.00 | 0.00 | 64 | 1015.7 |
| 20260903163203 | 88 | 155 | 4.0 | 12.0 | 0.00 | 0.00 | 0.00 | 64 | 1015.8 |
| 20260903160703 | 87 | 164 | 4.0 | 10.0 | 0.00 | 0.00 | 0.00 | 67 | 1015.9 |
| 20260903153203 | 85 | 147 | 6.0 | 13.0 | 0.00 | 0.00 | 0.00 | 70 | 1016.1 |
| 20260903150703 | 83 | 190 | 5.0 | 10.0 | 0.00 | 0.00 | 0.00 | 72 | 1016.3 |
| 20260903150203 | 83 | 164 | 5.0 | 14.0 | 0.00 | 0.00 | 0.00 | 73 | 1016.3 |
| 20260903143703 | 82 | 167 | 6.0 | 12.0 | 0.00 | 0.00 | 0.00 | 73 | 1016.6 |
| 20260903143202 | 82 | 179 | 3.0 | 13.0 | 0.00 | 0.00 | 0.00 | 73 | 1016.6 |
| 20260903140703 | 81 | 154 | 6.0 | 12.0 | 0.00 | 0.00 | 0.00 | 75 | 1016.8 |
| 20260903140203 | 81 | 156 | 5.0 | 12.0 | 0.00 | 0.00 | 0.00 | 75 | 1016.9 |
| 20260903133702 | 79 | 151 | 7.0 | 12.0 | 0.00 | 0.00 | 0.00 | 76 | 1016.9 |
| 20260903133203 | 79 | 156 | 3.0 | 12.0 | 0.00 | 0.00 | 0.00 | 77 | 1016.8 |